Location: Cisewo
(53.3833°N, 14.9000°E)
Time: 18:48:44
(UTC+00:00)

BEESAT 3 - Pass Details

Date: 25 September 2021
Orbit: 481 x 510 km, 64.9° (Epoch: 21 October)

Event Time Altitude Azimuth Distance (km) Brightness Sun altitude
Rises 19:18:14 0° 310° (NW) 2,609 ? -21.8°
Reaches altitude 10° 19:20:59 10° 331° (NNW) 1,729 ? -22.2°
Maximum altitude 19:23:39 18° 14° (NNE) 1,327 ? -22.5°
Enters shadow 19:24:27 17° 30° (NNE) 1,370 ? -22.6°
